START_TIME,STEP,MOV.,M6,t_acc.,M7,t_acc.,M19,t_acc.,H36,t_acc.
1979-07-14 15:00:51.370 ,0,0,0.,12.0,0.,12.0,0.,12.0,0.,12.0
1979-07-14 15:01:03.370 ,0,0,0.,12.0,0.,12.0,0.,12.0,0.,12.0
1979-07-14 15:01:15.370 ,0,0,0.,12.0,0.,12.0,0.,12.0,0.,12.0
1979-07-14 15:01:27.370 ,0,0,0.,12.0,0.,12.0,0.,12.0,0.,12.0
1979-07-14 15:01:39.370 ,3,1,0.,12.0,0.,12.0,0.,12.0,0.,12.0
1979-07-14 15:01:51.370 ,3,1,0.,12.0,0.,12.0,0.,12.0,0.,12.0
1979-07-14 15:02:03.370 ,3,0,0.,12.0,0.,12.0,0.,12.0,0.,12.0
1979-07-14 15:02:15.370 ,3,0,0.,12.0,0.,12.0,0.,12.0,0.,12.0
1979-07-14 15:02:27.370 ,4,1,0.,12.0,0.,12.0,0.,12.0,0.,12.0
1979-07-14 15:02:39.370 ,4,1,0.,12.0,0.,12.0,0.,12.0,0.,12.0
1979-07-14 15:02:51.370 ,4,0,0.,12.0,0.,12.0,0.,12.0,0.,12.0
1979-07-14 15:03:03.370 ,4,0,0.,12.0,0.,12.0,0.,12.0,0.,12.0
1979-07-14 15:03:15.370 ,5,1,0.,12.0,0.,12.0,0.,12.0,0.,12.0
1979-07-14 15:03:27.370 ,5,1,0.,12.0,0.,12.0,0.,12.0,0.,12.0
1979-07-14 15:03:39.370 ,5,0,0.,12.0,0.,12.0,0.,12.0,0.,12.0
1979-07-14 15:03:51.370 ,5,0,0.,12.0,0.,12.0,0.,12.0,0.,12.0
1979-07-14 15:04:03.370 ,6,1,0.,12.0,0.,12.0,0.,12.0,0.,12.0
1979-07-14 15:04:15.370 ,6,1,0.,12.0,0.,12.0,0.,12.0,0.,12.0
1979-07-14 15:04:27.370 ,6,0,0.,12.0,0.,12.0,0.,12.0,0.,12.0
1979-07-14 15:04:39.370 ,6,0,0.,12.0,0.,12.0,0.,12.0,0.,12.0
1979-07-14 15:04:51.370 ,7,1,0.,12.0,0.,12.0,0.,12.0,0.,12.0
1979-07-14 15:05:03.370 ,7,1,0.,12.0,0.,12.0,0.,12.0,0.,12.0
1979-07-14 15:05:15.370 ,7,0,0.,12.0,0.,12.0,0.,12.0,0.,12.0
1979-07-14 15:05:27.370 ,7,0,0.,12.0,0.,12.0,0.,12.0,0.,12.0
1979-07-14 15:05:39.370 ,7,1,0.,12.0,0.,12.0,0.,12.0,0.,12.0
1979-07-14 15:05:51.370 ,7,1,0.,12.0,0.,12.0,0.,12.0,0.,12.0
1979-07-14 15:06:03.370 ,7,0,0.,12.0,0.,12.0,0.,12.0,0.,12.0
1979-07-14 15:06:15.370 ,7,0,0.,12.0,0.,12.0,0.,12.0,0.,12.0
1979-07-14 15:06:27.370 ,6,1,0.,12.0,0.,12.0,0.,12.0,0.,12.0
1979-07-14 15:06:39.370 ,6,1,0.,12.0,0.,12.0,0.,12.0,0.,12.0
1979-07-14 15:06:51.370 ,6,0,0.,12.0,0.,12.0,0.,12.0,0.,12.0
1979-07-14 15:07:03.370 ,6,0,0.,12.0,0.,12.0,0.,12.0,0.,12.0
1979-07-14 15:07:15.370 ,5,1,0.,12.0,0.,12.0,0.,12.0,0.,12.0
1979-07-14 15:07:27.370 ,5,1,0.,12.0,0.,12.0,0.,12.0,0.,12.0
1979-07-14 15:07:39.370 ,5,0,0.,12.0,0.,12.0,0.,12.0,0.,12.0
1979-07-14 15:07:51.370 ,5,0,0.,12.0,0.,12.0,0.,12.0,0.,12.0
1979-07-14 15:08:03.370 ,4,1,1.,12.0,0.,12.0,0.,12.0,0.,12.0
1979-07-14 15:08:15.370 ,4,1,0.,12.0,0.,12.0,0.,12.0,0.,12.0
1979-07-14 15:09:15.370 ,0,0,0.,12.0,0.,12.0,0.,12.0,0.,12.0
1979-07-14 15:09:27.370 ,0,0,0.,12.0,0.,12.0,0.,12.0,0.,12.0
1979-07-14 15:09:39.370 ,2,1,0.,12.0,0.,12.0,0.,12.0,0.,12.0
1979-07-14 15:09:51.370 ,2,1,0.,12.0,0.,12.0,0.,12.0,0.,12.0
1979-07-14 15:10:03.370 ,2,0,0.,12.0,0.,12.0,0.,12.0,0.,12.0
1979-07-14 15:10:15.370 ,2,0,0.,12.0,0.,12.0,0.,12.0,0.,12.0
1979-07-14 15:10:27.370 ,1,1,0.,12.0,0.,12.0,0.,12.0,0.,12.0
1979-07-14 15:10:39.370 ,1,1,0.,12.0,0.,12.0,0.,12.0,0.,12.0
1979-07-14 15:10:51.370 ,1,0,0.,12.0,0.,12.0,0.,12.0,0.,12.0
1979-07-14 15:11:03.370 ,1,0,0.,12.0,0.,12.0,0.,12.0,0.,12.0
1979-07-14 15:11:15.370 ,0,1,0.,12.0,0.,12.0,0.,12.0,0.,12.0
1979-07-14 15:11:27.370 ,0,1,0.,12.0,0.,12.0,0.,12.0,0.,12.0
1979-07-14 15:11:39.370 ,0,0,0.,12.0,0.,12.0,0.,12.0,0.,12.0
1979-07-14 15:11:51.370 ,0,0,0.,12.0,0.,12.0,0.,12.0,0.,12.0
1979-07-14 15:12:03.370 ,0,1,0.,12.0,0.,12.0,0.,12.0,0.,12.0
1979-07-14 15:12:15.370 ,0,1,0.,12.0,0.,12.0,0.,12.0,0.,12.0
1979-07-14 15:12:27.370 ,0,0,0.,12.0,0.,12.0,0.,12.0,0.,12.0
1979-07-14 15:12:39.370 ,0,0,0.,12.0,0.,12.0,0.,12.0,0.,12.0
1979-07-14 15:12:51.370 ,1,1,0.,12.0,0.,12.0,0.,12.0,0.,12.0
1979-07-14 15:13:03.370 ,1,1,0.,12.0,0.,12.0,0.,12.0,0.,12.0
1979-07-14 15:13:15.370 ,1,0,0.,12.0,0.,12.0,0.,12.0,0.,12.0
1979-07-14 15:13:27.370 ,1,0,1.,12.0,0.,12.0,0.,12.0,0.,12.0
1979-07-14 15:13:39.370 ,2,1,0.,12.0,0.,12.0,0.,12.0,0.,12.0
1979-07-14 15:13:51.370 ,2,1,0.,12.0,0.,12.0,0.,12.0,0.,12.0
1979-07-14 15:14:03.370 ,2,0,0.,12.0,0.,12.0,0.,12.0,0.,12.0
1979-07-14 15:14:15.370 ,2,0,1.,12.0,0.,12.0,0.,12.0,0.,12.0
1979-07-14 15:14:27.370 ,3,1,0.,12.0,0.,12.0,0.,12.0,0.,12.0
1979-07-14 15:14:39.370 ,3,1,0.,12.0,0.,12.0,0.,12.0,0.,12.0
1979-07-14 15:14:51.370 ,3,0,0.,12.0,0.,12.0,0.,12.0,0.,12.0
1979-07-14 15:15:03.370 ,3,0,0.,12.0,0.,12.0,0.,12.0,0.,12.0
1979-07-14 15:15:15.370 ,4,1,0.,12.0,0.,12.0,0.,12.0,0.,12.0
1979-07-14 15:15:27.370 ,4,1,0.,12.0,0.,12.0,0.,12.0,0.,12.0
1979-07-14 15:15:39.370 ,4,0,0.,12.0,0.,12.0,0.,12.0,0.,12.0
1979-07-14 15:15:51.370 ,4,0,0.,12.0,0.,12.0,0.,12.0,0.,12.0
1979-07-14 15:16:03.370 ,5,1,0.,12.0,0.,12.0,0.,12.0,0.,12.0
1979-07-14 15:16:15.370 ,5,1,1.,12.0,0.,12.0,0.,12.0,0.,12.0
1979-07-14 15:16:27.370 ,5,0,0.,12.0,0.,12.0,0.,12.0,0.,12.0
1979-07-14 15:16:39.370 ,5,0,0.,12.0,0.,12.0,0.,12.0,0.,12.0
1979-07-14 15:16:51.370 ,6,1,0.,12.0,0.,12.0,0.,12.0,0.,12.0
1979-07-14 15:17:03.370 ,6,1,0.,12.0,0.,12.0,0.,12.0,0.,12.0
1979-07-14 15:17:15.370 ,6,0,0.,12.0,0.,12.0,0.,12.0,0.,12.0
1979-07-14 15:17:27.370 ,6,0,0.,12.0,0.,12.0,0.,12.0,0.,12.0
1979-07-14 15:17:39.370 ,7,1,0.,12.0,0.,12.0,0.,12.0,0.,12.0
1979-07-14 15:17:51.370 ,7,1,0.,12.0,0.,12.0,0.,12.0,0.,12.0
1979-07-14 15:18:03.370 ,7,0,0.,12.0,0.,12.0,0.,12.0,0.,12.0
1979-07-14 15:18:15.370 ,7,0,0.,12.0,0.,12.0,0.,12.0,0.,12.0
1979-07-14 15:18:27.370 ,7,1,0.,12.0,0.,12.0,0.,12.0,0.,12.0
1979-07-14 15:18:39.370 ,7,1,0.,12.0,0.,12.0,0.,12.0,0.,12.0
1979-07-14 15:18:51.370 ,7,0,0.,12.0,0.,12.0,0.,12.0,0.,12.0
1979-07-14 15:19:03.370 ,7,0,0.,12.0,0.,12.0,0.,12.0,0.,12.0
1979-07-14 15:19:15.370 ,6,1,0.,12.0,0.,12.0,0.,12.0,0.,12.0
1979-07-14 15:19:27.370 ,6,1,1.,12.0,0.,12.0,0.,12.0,0.,12.0
1979-07-14 15:19:39.370 ,6,0,0.,12.0,0.,12.0,0.,12.0,0.,12.0
1979-07-14 15:19:51.370 ,6,0,0.,12.0,0.,12.0,0.,12.0,0.,12.0
1979-07-14 15:20:03.370 ,5,1,0.,12.0,0.,12.0,0.,12.0,0.,12.0
1979-07-14 15:20:15.370 ,5,1,0.,12.0,0.,12.0,0.,12.0,0.,12.0
1979-07-14 15:20:27.370 ,5,0,0.,12.0,0.,12.0,0.,12.0,0.,12.0
1979-07-14 15:20:39.370 ,5,0,0.,12.0,0.,12.0,0.,12.0,0.,12.0
1979-07-14 15:20:51.370 ,4,1,0.,12.0,0.,12.0,0.,12.0,0.,12.0
1979-07-14 15:21:03.370 ,4,1,0.,12.0,0.,12.0,0.,12.0,0.,12.0
1979-07-14 15:21:15.370 ,4,0,0.,12.0,0.,12.0,0.,12.0,0.,12.0
1979-07-14 15:21:27.370 ,4,0,0.,12.0,0.,12.0,0.,12.0,0.,12.0
1979-07-14 15:21:39.370 ,3,1,0.,12.0,0.,12.0,0.,12.0,0.,12.0
1979-07-14 15:21:51.370 ,3,1,0.,12.0,0.,12.0,0.,12.0,0.,12.0
1979-07-14 15:22:03.370 ,3,0,0.,12.0,0.,12.0,0.,12.0,0.,12.0
1979-07-14 15:22:15.370 ,3,0,0.,12.0,0.,12.0,0.,12.0,0.,12.0
1979-07-14 15:22:27.370 ,2,1,0.,12.0,0.,12.0,0.,12.0,0.,12.0
1979-07-14 15:22:39.370 ,2,1,0.,12.0,0.,12.0,0.,12.0,0.,12.0
1979-07-14 15:22:51.370 ,2,0,0.,12.0,0.,12.0,0.,12.0,0.,12.0
1979-07-14 15:23:03.370 ,2,0,0.,12.0,0.,12.0,0.,12.0,0.,12.0
1979-07-14 15:23:15.370 ,1,1,0.,12.0,0.,12.0,0.,12.0,0.,12.0
1979-07-14 15:23:27.370 ,1,1,0.,12.0,0.,12.0,0.,12.0,0.,12.0
1979-07-14 15:23:39.370 ,1,0,0.,12.0,0.,12.0,0.,12.0,0.,12.0
1979-07-14 15:23:51.370 ,1,0,0.,12.0,0.,12.0,0.,12.0,0.,12.0
1979-07-14 15:24:03.370 ,0,1,0.,12.0,0.,12.0,0.,12.0,0.,12.0
1979-07-14 15:24:15.370 ,0,1,0.,12.0,0.,12.0,0.,12.0,0.,12.0
1979-07-14 15:24:27.370 ,0,0,0.,12.0,0.,12.0,0.,12.0,0.,12.0
1979-07-14 15:24:39.370 ,0,0,0.,12.0,0.,12.0,0.,12.0,0.,12.0
1979-07-14 15:25:39.370 ,0,0,1.,12.0,0.,12.0,0.,12.0,0.,12.0
1979-07-14 15:25:51.370 ,0,0,0.,12.0,0.,12.0,0.,12.0,0.,12.0
1979-07-14 15:26:03.370 ,0,0,0.,12.0,0.,12.0,0.,12.0,0.,12.0
1979-07-14 15:26:15.370 ,0,0,0.,12.0,0.,12.0,0.,12.0,0.,12.0
1979-07-14 15:26:27.370 ,2,1,0.,12.0,0.,12.0,0.,12.0,0.,12.0
1979-07-14 15:26:39.370 ,2,1,1.,12.0,0.,12.0,0.,12.0,0.,12.0
1979-07-14 15:26:51.370 ,2,0,0.,12.0,0.,12.0,0.,12.0,0.,12.0
1979-07-14 15:27:03.370 ,2,0,0.,12.0,0.,12.0,0.,12.0,0.,12.0
1979-07-14 15:27:15.370 ,3,1,0.,12.0,0.,12.0,0.,12.0,0.,12.0
1979-07-14 15:27:27.370 ,3,1,0.,12.0,0.,12.0,0.,12.0,0.,12.0
1979-07-14 15:27:39.370 ,3,0,0.,12.0,0.,12.0,0.,12.0,0.,12.0
1979-07-14 15:27:51.370 ,3,0,0.,12.0,0.,12.0,0.,12.0,0.,12.0
1979-07-14 15:28:03.370 ,4,1,0.,12.0,0.,12.0,0.,12.0,0.,12.0
1979-07-14 15:28:15.370 ,4,1,0.,12.0,0.,12.0,0.,12.0,0.,12.0
1979-07-14 15:28:27.370 ,4,0,0.,12.0,0.,12.0,0.,12.0,0.,12.0
1979-07-14 15:28:39.370 ,4,0,0.,12.0,0.,12.0,0.,12.0,0.,12.0
1979-07-14 15:28:51.370 ,5,1,0.,12.0,0.,12.0,0.,12.0,0.,12.0
1979-07-14 15:29:03.370 ,5,1,0.,12.0,0.,12.0,0.,12.0,0.,12.0
1979-07-14 15:29:15.370 ,5,0,0.,12.0,0.,12.0,0.,12.0,0.,12.0
1979-07-14 15:29:27.370 ,5,0,0.,12.0,0.,12.0,0.,12.0,0.,12.0
1979-07-14 15:29:39.370 ,6,1,0.,12.0,0.,12.0,0.,12.0,0.,12.0
1979-07-14 15:29:51.370 ,6,1,0.,12.0,0.,12.0,0.,12.0,0.,12.0
1979-07-14 15:30:03.370 ,6,0,0.,12.0,0.,12.0,0.,12.0,0.,12.0
1979-07-14 15:30:15.370 ,6,0,0.,12.0,0.,12.0,0.,12.0,0.,12.0
1979-07-14 15:30:27.370 ,7,0,0.,12.0,0.,12.0,0.,12.0,0.,12.0
1979-07-14 15:30:39.370 ,7,0,0.,12.0,0.,12.0,0.,12.0,0.,12.0
1979-07-14 15:30:51.370 ,7,0,0.,12.0,0.,12.0,0.,12.0,0.,12.0
1979-07-14 15:31:03.370 ,7,0,0.,12.0,0.,12.0,0.,12.0,0.,12.0
1979-07-14 15:31:15.370 ,4,1,0.,12.0,0.,12.0,0.,12.0,0.,12.0
1979-07-14 15:31:27.370 ,4,1,0.,12.0,0.,12.0,0.,12.0,0.,12.0
1979-07-14 15:31:39.370 ,0,1,0.,12.0,0.,12.0,0.,12.0,0.,12.0
1979-07-14 15:31:51.370 ,0,1,0.,12.0,0.,12.0,0.,12.0,0.,12.0
1979-07-14 15:32:03.370 ,3,1,0.,12.0,0.,12.0,0.,12.0,0.,12.0
1979-07-14 15:32:15.370 ,3,1,0.,12.0,0.,12.0,0.,12.0,0.,12.0
1979-07-14 15:32:27.370 ,7,1,0.,12.0,0.,12.0,0.,12.0,0.,12.0
1979-07-14 15:32:39.370 ,7,1,0.,12.0,0.,12.0,0.,12.0,0.,12.0
1979-07-14 15:32:51.370 ,4,1,0.,12.0,0.,12.0,0.,12.0,0.,12.0
1979-07-14 15:33:03.370 ,4,1,0.,12.0,0.,12.0,0.,12.0,0.,12.0
1979-07-14 15:33:15.370 ,0,1,0.,12.0,0.,12.0,0.,12.0,0.,12.0
1979-07-14 15:33:27.370 ,0,1,0.,12.0,0.,12.0,0.,12.0,0.,12.0
1979-07-14 15:33:39.370 ,3,1,0.,12.0,0.,12.0,0.,12.0,0.,12.0
1979-07-14 15:33:51.370 ,3,1,0.,12.0,0.,12.0,0.,12.0,0.,12.0
1979-07-14 15:34:03.370 ,7,1,0.,12.0,0.,12.0,0.,12.0,0.,12.0
1979-07-14 15:34:15.370 ,7,1,0.,12.0,0.,12.0,0.,12.0,0.,12.0
1979-07-14 15:34:27.370 ,4,1,0.,12.0,0.,12.0,0.,12.0,0.,12.0
1979-07-14 15:34:39.370 ,4,1,0.,12.0,0.,12.0,0.,12.0,0.,12.0
1979-07-14 15:34:51.370 ,0,1,0.,12.0,0.,12.0,0.,12.0,0.,12.0
1979-07-14 15:35:03.370 ,0,1,1.,12.0,0.,12.0,0.,12.0,0.,12.0
1979-07-14 15:35:15.370 ,3,1,0.,12.0,0.,12.0,0.,12.0,0.,12.0
1979-07-14 15:35:27.370 ,3,1,0.,12.0,0.,12.0,0.,12.0,0.,12.0
1979-07-14 15:35:39.370 ,7,1,0.,12.0,0.,12.0,0.,12.0,0.,12.0
1979-07-14 15:35:51.370 ,7,1,0.,12.0,0.,12.0,0.,12.0,0.,12.0
1979-07-14 15:36:03.370 ,4,1,0.,12.0,0.,12.0,0.,12.0,0.,12.0
1979-07-14 15:36:15.370 ,4,1,0.,12.0,0.,12.0,0.,12.0,0.,12.0
1979-07-14 15:36:27.370 ,0,1,0.,12.0,0.,12.0,0.,12.0,0.,12.0
1979-07-14 15:36:39.370 ,0,1,0.,12.0,0.,12.0,0.,12.0,0.,12.0
1979-07-14 15:36:51.370 ,3,1,0.,12.0,0.,12.0,0.,12.0,0.,12.0
1979-07-14 15:37:03.370 ,3,1,0.,12.0,0.,12.0,0.,12.0,0.,12.0
1979-07-14 15:37:15.370 ,7,1,0.,12.0,0.,12.0,0.,12.0,0.,12.0
1979-07-14 15:37:27.370 ,7,1,0.,12.0,0.,12.0,0.,12.0,0.,12.0
1979-07-14 15:37:39.370 ,4,1,0.,12.0,0.,12.0,0.,12.0,0.,12.0
1979-07-14 15:37:51.370 ,4,1,0.,12.0,0.,12.0,0.,12.0,0.,12.0
1979-07-14 15:38:03.370 ,0,1,0.,12.0,0.,12.0,0.,12.0,0.,12.0
1979-07-14 15:38:15.370 ,0,1,0.,12.0,0.,12.0,0.,12.0,0.,12.0
1979-07-14 15:38:27.370 ,3,1,0.,12.0,0.,12.0,0.,12.0,0.,12.0
1979-07-14 15:38:39.370 ,3,1,0.,12.0,0.,12.0,0.,12.0,0.,12.0
1979-07-14 15:38:51.370 ,7,1,0.,12.0,0.,12.0,0.,12.0,0.,12.0
1979-07-14 15:39:03.370 ,7,1,0.,12.0,0.,12.0,0.,12.0,0.,12.0
1979-07-14 15:39:15.370 ,4,1,0.,12.0,0.,12.0,0.,12.0,0.,12.0
1979-07-14 15:39:27.370 ,4,1,0.,12.0,0.,12.0,0.,12.0,0.,12.0
1979-07-14 15:39:39.370 ,0,1,0.,12.0,0.,12.0,0.,12.0,0.,12.0
1979-07-14 15:39:51.370 ,0,1,0.,12.0,0.,12.0,0.,12.0,0.,12.0
1979-07-14 15:40:03.370 ,3,1,0.,12.0,0.,12.0,0.,12.0,0.,12.0
1979-07-14 15:40:15.370 ,3,1,0.,12.0,0.,12.0,0.,12.0,0.,12.0
1979-07-14 15:40:27.370 ,7,1,0.,12.0,0.,12.0,0.,12.0,0.,12.0
1979-07-14 15:40:39.370 ,7,1,0.,12.0,0.,12.0,0.,12.0,0.,12.0
1979-07-14 15:40:51.370 ,4,1,0.,12.0,0.,12.0,0.,12.0,0.,12.0
1979-07-14 15:41:03.370 ,4,1,0.,12.0,0.,12.0,0.,12.0,0.,12.0
1979-07-14 15:41:15.370 ,0,1,0.,12.0,0.,12.0,0.,12.0,0.,12.0
1979-07-14 15:41:27.370 ,0,1,0.,12.0,0.,12.0,0.,12.0,0.,12.0
1979-07-14 15:41:39.370 ,0,0,0.,12.0,0.,12.0,0.,12.0,0.,12.0
1979-07-14 15:41:51.370 ,0,0,0.,12.0,0.,12.0,0.,12.0,0.,12.0
1979-07-14 15:42:03.370 ,0,0,0.,12.0,0.,12.0,0.,12.0,0.,12.0
1979-07-14 15:42:15.370 ,0,0,0.,12.0,0.,12.0,0.,12.0,0.,12.0
1979-07-14 15:42:27.370 ,5,1,0.,12.0,0.,12.0,0.,12.0,0.,12.0
1979-07-14 15:42:39.370 ,5,1,0.,12.0,0.,12.0,0.,12.0,0.,12.0
1979-07-14 15:42:51.370 ,5,0,0.,12.0,0.,12.0,0.,12.0,0.,12.0
1979-07-14 15:43:03.370 ,5,0,0.,12.0,0.,12.0,0.,12.0,0.,12.0
1979-07-14 15:43:15.370 ,4,1,0.,12.0,0.,12.0,0.,12.0,0.,12.0
1979-07-14 15:43:27.370 ,4,1,0.,12.0,0.,12.0,0.,12.0,0.,12.0
1979-07-14 15:43:39.370 ,4,0,0.,12.0,0.,12.0,0.,12.0,0.,12.0
1979-07-14 15:43:51.370 ,4,0,0.,12.0,0.,12.0,0.,12.0,0.,12.0
1979-07-14 15:44:03.370 ,3,1,0.,12.0,0.,12.0,0.,12.0,0.,12.0
1979-07-14 15:44:15.370 ,3,1,0.,12.0,0.,12.0,0.,12.0,0.,12.0
1979-07-14 15:44:27.370 ,3,0,0.,12.0,0.,12.0,0.,12.0,0.,12.0
1979-07-14 15:44:39.370 ,3,0,0.,12.0,0.,12.0,0.,12.0,0.,12.0
1979-07-14 15:44:51.370 ,0,0,0.,12.0,0.,12.0,0.,12.0,0.,12.0
1979-07-14 15:45:03.370 ,0,0,,0,,0,,0,,0
1979-07-14 15:45:15.370 ,0,0,,0,,0,,0,,0
1979-07-14 15:45:27.370 ,0,0,,0,,0,,0,,0
1979-07-14 15:46:27.370 ,0,0,0.,12.0,0.,12.0,0.,12.0,0.,12.0
1979-07-14 15:46:39.370 ,0,0,0.,12.0,0.,12.0,0.,12.0,0.,12.0
1979-07-14 15:46:51.370 ,0,0,0.,12.0,0.,12.0,0.,12.0,0.,12.0
1979-07-14 15:47:03.370 ,0,0,0.,12.0,0.,12.0,0.,12.0,0.,12.0
1979-07-14 15:47:15.370 ,0,1,0.,12.0,0.,12.0,0.,12.0,0.,12.0
1979-07-14 15:47:27.370 ,0,1,0.,12.0,0.,12.0,0.,12.0,0.,12.0
1979-07-14 15:47:39.370 ,0,0,0.,12.0,0.,12.0,0.,12.0,0.,12.0
1979-07-14 15:47:51.370 ,0,0,0.,12.0,0.,12.0,0.,12.0,0.,12.0
1979-07-14 15:48:03.370 ,1,1,0.,12.0,0.,12.0,0.,12.0,0.,12.0
1979-07-14 15:48:15.370 ,1,1,0.,12.0,0.,12.0,0.,12.0,0.,12.0
1979-07-14 15:48:27.370 ,1,0,0.,12.0,0.,12.0,0.,12.0,0.,12.0
1979-07-14 15:48:39.370 ,1,0,0.,12.0,0.,12.0,0.,12.0,0.,12.0
1979-07-14 15:48:51.370 ,2,1,0.,12.0,0.,12.0,0.,12.0,0.,12.0
1979-07-14 15:49:03.370 ,2,1,0.,12.0,0.,12.0,0.,12.0,0.,12.0
1979-07-14 15:49:15.370 ,2,0,0.,12.0,0.,12.0,0.,12.0,0.,12.0
1979-07-14 15:49:27.370 ,2,0,0.,12.0,0.,12.0,0.,12.0,0.,12.0
1979-07-14 15:49:39.370 ,3,1,0.,12.0,0.,12.0,0.,12.0,0.,12.0
1979-07-14 15:49:51.370 ,3,1,0.,12.0,0.,12.0,0.,12.0,0.,12.0
1979-07-14 15:50:03.370 ,3,0,0.,12.0,0.,12.0,0.,12.0,0.,12.0
1979-07-14 15:50:15.370 ,3,0,0.,12.0,0.,12.0,0.,12.0,0.,12.0
1979-07-14 15:50:27.370 ,4,1,0.,12.0,0.,12.0,0.,12.0,0.,12.0
1979-07-14 15:50:39.370 ,4,1,0.,12.0,0.,12.0,0.,12.0,0.,12.0
1979-07-14 15:50:51.370 ,4,0,0.,12.0,0.,12.0,0.,12.0,0.,12.0
1979-07-14 15:51:03.370 ,4,0,1.,12.0,0.,12.0,0.,12.0,0.,12.0
1979-07-14 15:51:15.370 ,5,1,0.,12.0,0.,12.0,0.,12.0,0.,12.0
1979-07-14 15:51:27.370 ,5,1,0.,12.0,0.,12.0,0.,12.0,0.,12.0
1979-07-14 15:51:39.370 ,5,0,0.,12.0,0.,12.0,0.,12.0,0.,12.0
1979-07-14 15:51:51.370 ,5,0,0.,12.0,0.,12.0,0.,12.0,0.,12.0
1979-07-14 15:52:03.370 ,6,1,0.,12.0,0.,12.0,0.,12.0,0.,12.0
1979-07-14 15:52:15.370 ,6,1,0.,12.0,0.,12.0,0.,12.0,0.,12.0
1979-07-14 15:52:27.370 ,6,0,0.,12.0,0.,12.0,0.,12.0,0.,12.0
1979-07-14 15:52:39.370 ,6,0,0.,12.0,0.,12.0,0.,12.0,0.,12.0
1979-07-14 15:52:51.370 ,6,0,0.,12.0,0.,12.0,0.,12.0,0.,12.0
1979-07-14 15:53:03.370 ,6,0,,0,,0,,0,,0
1979-07-14 15:53:15.370 ,7,0,0.,12.0,0.,12.0,0.,12.0,0.,12.0
1979-07-14 15:53:27.370 ,7,0,0.,12.0,0.,12.0,0.,12.0,0.,12.0
1979-07-14 15:53:39.370 ,7,1,0.,12.0,0.,12.0,0.,12.0,0.,12.0
1979-07-14 15:53:51.370 ,7,1,0.,12.0,0.,12.0,0.,12.0,0.,12.0
1979-07-14 15:54:03.370 ,7,0,0.,12.0,0.,12.0,0.,12.0,0.,12.0
1979-07-14 15:54:15.370 ,7,0,0.,12.0,0.,12.0,0.,12.0,0.,12.0
1979-07-14 15:54:27.370 ,6,1,0.,12.0,0.,12.0,0.,12.0,0.,12.0
1979-07-14 15:54:39.370 ,6,1,0.,12.0,0.,12.0,0.,12.0,0.,12.0
1979-07-14 15:54:51.370 ,6,0,0.,12.0,0.,12.0,0.,12.0,0.,12.0
1979-07-14 15:55:03.370 ,6,0,0.,12.0,0.,12.0,0.,12.0,0.,12.0
1979-07-14 15:55:15.370 ,5,1,0.,12.0,0.,12.0,0.,12.0,0.,12.0
1979-07-14 15:55:27.370 ,5,1,0.,12.0,0.,12.0,0.,12.0,0.,12.0
1979-07-14 15:55:39.370 ,5,0,0.,12.0,0.,12.0,0.,12.0,0.,12.0
1979-07-14 15:55:51.370 ,5,0,0.,12.0,0.,12.0,0.,12.0,0.,12.0
1979-07-14 15:56:03.370 ,4,1,0.,12.0,0.,12.0,0.,12.0,0.,12.0
1979-07-14 15:56:15.370 ,4,1,0.,12.0,0.,12.0,0.,12.0,0.,12.0
1979-07-14 15:56:27.370 ,4,0,0.,12.0,0.,12.0,0.,12.0,0.,12.0
1979-07-14 15:56:39.370 ,4,0,0.,12.0,0.,12.0,0.,12.0,0.,12.0
1979-07-14 15:56:51.370 ,3,1,0.,12.0,0.,12.0,0.,12.0,0.,12.0
1979-07-14 15:57:03.370 ,3,1,0.,12.0,0.,12.0,0.,12.0,0.,12.0
1979-07-14 15:57:15.370 ,3,0,0.,12.0,0.,12.0,0.,12.0,0.,12.0
1979-07-14 15:57:27.370 ,3,0,0.,12.0,0.,12.0,0.,12.0,0.,12.0
1979-07-14 15:57:39.370 ,2,1,0.,12.0,0.,12.0,0.,12.0,0.,12.0
1979-07-14 15:57:51.370 ,2,1,0.,12.0,0.,12.0,0.,12.0,0.,12.0
1979-07-14 15:58:03.370 ,2,0,0.,12.0,0.,12.0,0.,12.0,0.,12.0
1979-07-14 15:58:15.370 ,2,0,0.,12.0,0.,12.0,0.,12.0,0.,12.0
1979-07-14 15:58:27.370 ,1,1,1.,12.0,0.,12.0,0.,12.0,0.,12.0
1979-07-14 15:58:39.370 ,1,1,0.,12.0,0.,12.0,0.,12.0,0.,12.0
1979-07-14 15:58:51.370 ,1,0,0.,12.0,0.,12.0,0.,12.0,0.,12.0
1979-07-14 15:59:03.370 ,1,0,0.,12.0,0.,12.0,0.,12.0,0.,12.0
1979-07-14 15:59:15.370 ,0,1,0.,12.0,0.,12.0,0.,12.0,0.,12.0
1979-07-14 15:59:27.370 ,0,1,0.,12.0,0.,12.0,0.,12.0,0.,12.0
1979-07-14 15:59:39.370 ,0,0,0.,12.0,0.,12.0,0.,12.0,0.,12.0
1979-07-14 15:59:51.370 ,0,0,0.,12.0,0.,12.0,0.,12.0,0.,12.0
1979-07-14 16:00:03.370 ,0,1,0.,12.0,0.,12.0,0.,12.0,0.,12.0
1979-07-14 16:00:15.370 ,0,1,0.,12.0,0.,12.0,0.,12.0,0.,12.0
1979-07-14 16:00:27.370 ,0,0,0.,12.0,0.,12.0,0.,12.0,0.,12.0
1979-07-14 16:00:39.370 ,0,0,0.,12.0,0.,12.0,0.,12.0,0.,12.0
1979-07-14 16:00:51.370 ,1,1,0.,12.0,0.,12.0,0.,12.0,0.,12.0
1979-07-14 16:01:03.370 ,1,1,0.,12.0,0.,12.0,0.,12.0,0.,12.0
1979-07-14 16:01:15.370 ,1,0,0.,12.0,0.,12.0,0.,12.0,0.,12.0
1979-07-14 16:01:27.370 ,1,0,0.,12.0,0.,12.0,0.,12.0,0.,12.0
1979-07-14 16:01:39.370 ,2,1,0.,12.0,0.,12.0,0.,12.0,0.,12.0
1979-07-14 16:01:51.370 ,2,1,0.,12.0,0.,12.0,0.,12.0,0.,12.0
1979-07-14 16:02:03.370 ,2,0,0.,12.0,0.,12.0,0.,12.0,0.,12.0
1979-07-14 16:02:15.370 ,2,0,0.,12.0,0.,12.0,0.,12.0,0.,12.0
1979-07-14 16:02:27.370 ,3,1,0.,12.0,0.,12.0,0.,12.0,0.,12.0
1979-07-14 16:02:39.370 ,3,1,0.,12.0,0.,12.0,0.,12.0,0.,12.0
1979-07-14 16:02:51.370 ,3,0,0.,12.0,0.,12.0,0.,12.0,0.,12.0
1979-07-14 16:03:03.370 ,3,0,0.,12.0,0.,12.0,0.,12.0,0.,12.0
1979-07-14 16:03:15.370 ,4,1,0.,12.0,0.,12.0,0.,12.0,0.,12.0
1979-07-14 16:03:27.370 ,4,1,0.,12.0,0.,12.0,0.,12.0,0.,12.0
1979-07-14 16:03:39.370 ,4,0,0.,12.0,0.,12.0,0.,12.0,0.,12.0
1979-07-14 16:03:51.370 ,4,0,0.,12.0,0.,12.0,0.,12.0,0.,12.0
1979-07-14 16:04:03.370 ,5,1,0.,12.0,0.,12.0,0.,12.0,0.,12.0
1979-07-14 16:04:15.370 ,5,1,0.,12.0,0.,12.0,0.,12.0,0.,12.0
1979-07-14 16:04:27.370 ,5,0,0.,12.0,0.,12.0,0.,12.0,0.,12.0
1979-07-14 16:04:39.370 ,5,0,0.,12.0,0.,12.0,0.,12.0,0.,12.0
1979-07-14 16:04:51.370 ,6,1,0.,12.0,0.,12.0,0.,12.0,0.,12.0
1979-07-14 16:05:03.370 ,6,1,0.,12.0,0.,12.0,0.,12.0,0.,12.0
1979-07-14 16:05:15.370 ,6,0,0.,12.0,0.,12.0,0.,12.0,0.,12.0
1979-07-14 16:05:27.370 ,6,0,0.,12.0,0.,12.0,0.,12.0,0.,12.0
1979-07-14 16:05:39.370 ,7,1,0.,12.0,0.,12.0,0.,12.0,0.,12.0
1979-07-14 16:05:51.370 ,7,1,0.,12.0,0.,12.0,0.,12.0,0.,12.0
1979-07-14 16:06:03.370 ,7,0,0.,12.0,0.,12.0,0.,12.0,0.,12.0
1979-07-14 16:06:15.370 ,7,0,0.,12.0,0.,12.0,0.,12.0,0.,12.0
1979-07-14 16:06:27.370 ,7,1,0.,12.0,0.,12.0,0.,12.0,0.,12.0
1979-07-14 16:06:39.370 ,7,1,0.,12.0,0.,12.0,0.,12.0,0.,12.0
1979-07-14 16:06:51.370 ,7,0,0.,12.0,0.,12.0,0.,12.0,0.,12.0
1979-07-14 16:07:03.370 ,7,0,0.,12.0,0.,12.0,0.,12.0,0.,12.0
1979-07-14 16:07:15.370 ,6,1,0.,12.0,0.,12.0,0.,12.0,0.,12.0
1979-07-14 16:07:27.370 ,6,1,0.,12.0,0.,12.0,0.,12.0,0.,12.0
1979-07-14 16:07:39.370 ,6,0,0.,12.0,0.,12.0,0.,12.0,0.,12.0
1979-07-14 16:07:51.370 ,6,0,1.,12.0,0.,12.0,0.,12.0,0.,12.0
1979-07-14 16:08:03.370 ,5,1,0.,12.0,0.,12.0,0.,12.0,0.,12.0
1979-07-14 16:08:15.370 ,5,1,0.,12.0,0.,12.0,0.,12.0,0.,12.0
1979-07-14 16:08:27.370 ,5,0,0.,12.0,0.,12.0,0.,12.0,0.,12.0
1979-07-14 16:08:39.370 ,5,0,1.,12.0,0.,12.0,0.,12.0,0.,12.0
1979-07-14 16:08:51.370 ,4,1,0.,12.0,0.,12.0,0.,12.0,0.,12.0
1979-07-14 16:09:03.370 ,4,1,0.,12.0,0.,12.0,0.,12.0,0.,12.0
1979-07-14 16:09:15.370 ,4,0,0.,12.0,0.,12.0,0.,12.0,0.,12.0
1979-07-14 16:09:27.370 ,4,0,0.,12.0,0.,12.0,0.,12.0,0.,12.0
1979-07-14 16:09:39.370 ,3,1,0.,12.0,0.,12.0,0.,12.0,0.,12.0
1979-07-14 16:09:51.370 ,3,1,0.,12.0,0.,12.0,0.,12.0,0.,12.0
1979-07-14 16:10:03.370 ,3,0,0.,12.0,0.,12.0,0.,12.0,0.,12.0
1979-07-14 16:10:15.370 ,3,0,0.,12.0,0.,12.0,0.,12.0,0.,12.0
1979-07-14 16:10:27.370 ,2,1,0.,12.0,0.,12.0,0.,12.0,0.,12.0
1979-07-14 16:10:39.370 ,2,1,0.,12.0,0.,12.0,0.,12.0,0.,12.0
1979-07-14 16:10:51.370 ,2,0,0.,12.0,0.,12.0,0.,12.0,0.,12.0
1979-07-14 16:11:03.370 ,2,0,0.,12.0,0.,12.0,0.,12.0,0.,12.0
1979-07-14 16:11:15.370 ,1,1,0.,12.0,0.,12.0,0.,12.0,0.,12.0
1979-07-14 16:11:27.370 ,1,1,0.,12.0,0.,12.0,0.,12.0,0.,12.0
1979-07-14 16:11:39.370 ,1,0,0.,12.0,0.,12.0,0.,12.0,0.,12.0
1979-07-14 16:11:51.370 ,1,0,0.,12.0,0.,12.0,0.,12.0,0.,12.0
1979-07-14 16:12:03.370 ,0,1,0.,12.0,0.,12.0,0.,12.0,0.,12.0
1979-07-14 16:12:15.370 ,0,1,0.,12.0,0.,12.0,0.,12.0,0.,12.0
1979-07-14 16:12:27.370 ,0,0,0.,12.0,0.,12.0,0.,12.0,0.,12.0
1979-07-14 16:12:39.370 ,0,0,0.,12.0,0.,12.0,0.,12.0,0.,12.0
1979-07-14 16:12:51.370 ,0,1,0.,12.0,0.,12.0,0.,12.0,0.,12.0
1979-07-14 16:13:03.370 ,0,1,0.,12.0,0.,12.0,0.,12.0,0.,12.0
1979-07-14 16:13:15.370 ,0,0,0.,12.0,0.,12.0,0.,12.0,0.,12.0
1979-07-14 16:13:27.370 ,0,0,0.,12.0,0.,12.0,0.,12.0,0.,12.0
1979-07-14 16:13:39.370 ,1,1,0.,12.0,0.,12.0,0.,12.0,0.,12.0
1979-07-14 16:13:51.370 ,1,1,0.,12.0,0.,12.0,0.,12.0,0.,12.0
1979-07-14 16:14:03.370 ,1,0,0.,12.0,0.,12.0,0.,12.0,0.,12.0
1979-07-14 16:14:15.370 ,1,0,0.,12.0,0.,12.0,0.,12.0,0.,12.0
1979-07-14 16:14:27.370 ,2,1,0.,12.0,0.,12.0,0.,12.0,0.,12.0
1979-07-14 16:14:39.370 ,2,1,0.,12.0,0.,12.0,0.,12.0,0.,12.0
1979-07-14 16:14:51.370 ,2,0,0.,12.0,0.,12.0,0.,12.0,0.,12.0
1979-07-14 16:15:03.370 ,2,0,0.,12.0,0.,12.0,0.,12.0,0.,12.0
1979-07-14 16:15:15.370 ,3,1,0.,12.0,0.,12.0,0.,12.0,0.,12.0
1979-07-14 16:15:27.370 ,3,1,0.,12.0,0.,12.0,0.,12.0,0.,12.0
1979-07-14 16:15:39.370 ,3,0,0.,12.0,0.,12.0,0.,12.0,0.,12.0
1979-07-14 16:15:51.370 ,3,0,0.,12.0,0.,12.0,0.,12.0,0.,12.0
1979-07-14 16:16:03.370 ,4,1,0.,12.0,0.,12.0,0.,12.0,0.,12.0
1979-07-14 16:16:15.370 ,4,1,0.,12.0,0.,12.0,0.,12.0,0.,12.0
1979-07-14 16:16:27.370 ,4,0,0.,12.0,0.,12.0,0.,12.0,0.,12.0
1979-07-14 16:16:39.370 ,4,0,1.,12.0,0.,12.0,0.,12.0,0.,12.0
1979-07-14 16:16:51.370 ,5,1,0.,12.0,0.,12.0,0.,12.0,0.,12.0
1979-07-14 16:17:03.370 ,5,1,0.,12.0,0.,12.0,0.,12.0,0.,12.0
1979-07-14 16:17:15.370 ,5,0,0.,12.0,0.,12.0,0.,12.0,0.,12.0
1979-07-14 16:17:27.370 ,5,0,0.,12.0,0.,12.0,0.,12.0,0.,12.0
1979-07-14 16:17:39.370 ,6,1,0.,12.0,0.,12.0,0.,12.0,0.,12.0
1979-07-14 16:17:51.370 ,6,1,0.,12.0,0.,12.0,0.,12.0,0.,12.0
1979-07-14 16:18:03.370 ,6,0,0.,12.0,0.,12.0,0.,12.0,0.,12.0
1979-07-14 16:18:15.370 ,6,0,0.,12.0,0.,12.0,0.,12.0,0.,12.0
1979-07-14 16:18:27.370 ,7,0,0.,12.0,0.,12.0,0.,12.0,0.,12.0
1979-07-14 16:18:39.370 ,7,0,0.,12.0,0.,12.0,0.,12.0,0.,12.0
1979-07-14 16:18:51.370 ,7,0,0.,12.0,0.,12.0,0.,12.0,0.,12.0
1979-07-14 16:19:03.370 ,7,0,0.,12.0,0.,12.0,0.,12.0,0.,12.0
1979-07-14 16:19:15.370 ,4,1,0.,12.0,0.,12.0,0.,12.0,0.,12.0
1979-07-14 16:19:27.370 ,4,1,0.,12.0,0.,12.0,0.,12.0,0.,12.0
1979-07-14 16:19:39.370 ,0,1,0.,12.0,0.,12.0,0.,12.0,0.,12.0
1979-07-14 16:19:51.370 ,0,1,0.,12.0,0.,12.0,0.,12.0,0.,12.0
1979-07-14 16:20:03.370 ,3,1,0.,12.0,0.,12.0,0.,12.0,0.,12.0
1979-07-14 16:20:15.370 ,3,1,0.,12.0,0.,12.0,0.,12.0,0.,12.0
1979-07-14 16:20:27.370 ,7,1,0.,12.0,0.,12.0,0.,12.0,0.,12.0